When you browse on this site, cookies collect data to enhance your experience and personalize the content and advertising you see.
Visit our Privacy Policy to learn more. By continuing to use the site, you agree to this use of cookies and data.
  • Em Portugal
  • Lista de países
  • Para 7 dias
  • Temperatura da água
  • Mapa do tempo
  • Widgets de tempo
  • user-avatar
    Iniciar Sessão

    Previsão horária em Córdoba

    Hoje, 2 Junho, Terça-feira

    Tempo Temperatura Precipitação Vento Pressão Humidade
    00:00 +8°C° 0 mm 2 m/s 728 mmHg 53%
    01:00 +8°C° 0 mm 2 m/s 728 mmHg 54%
    02:00 +8°C° 0 mm 2 m/s 728 mmHg 55%
    03:00 +8°C° 0 mm 2 m/s 728 mmHg 57%
    04:00 +8°C° 0 mm 1 m/s 727 mmHg 58%
    05:00 +8°C° 0 mm 1 m/s 727 mmHg 60%
    06:00 +9°C° 0 mm 1 m/s 727 mmHg 59%
    07:00 +9°C° 0 mm 1 m/s 727 mmHg 57%
    08:00 +9°C° 0 mm 1 m/s 727 mmHg 56%
    09:00 +12°C° 0 mm 2 m/s 727 mmHg 50%
    10:00 +14°C° 0 mm 2 m/s 727 mmHg 43%
    11:00 +17°C° 0 mm 3 m/s 727 mmHg 36%
    12:00 +18°C° 0 mm 3 m/s 727 mmHg 35%
    13:00 +19°C° 0 mm 4 m/s 726 mmHg 33%
    14:00 +20°C° 0 mm 4 m/s 725 mmHg 32%
    15:00 +19°C° 0 mm 4 m/s 725 mmHg 34%
    16:00 +17°C° 0 mm 4 m/s 724 mmHg 37%
    17:00 +15°C° 0 mm 4 m/s 724 mmHg 39%
    18:00 +13°C° 0 mm 4 m/s 724 mmHg 43%
    19:00 +12°C° 0 mm 4 m/s 724 mmHg 46%
    20:00 +11°C° 0 mm 3 m/s 725 mmHg 50%
    21:00 +10°C° 0 mm 4 m/s 725 mmHg 50%
    22:00 +10°C° 0 mm 4 m/s 725 mmHg 51%
    23:00 +10°C° 0 mm 4 m/s 725 mmHg 52%

    Amanhã, 3 Junho, Quarta-feira

    Tempo Temperatura Precipitação Vento Pressão Humidade
    00:00 +8°C° 0 mm 4 m/s 724 mmHg 53%
    01:00 +8°C° 0 mm 4 m/s 724 mmHg 55%
    02:00 +8°C° 0 mm 4 m/s 724 mmHg 57%
    03:00 +8°C° 0 mm 3 m/s 724 mmHg 60%
    04:00 +8°C° 0 mm 3 m/s 724 mmHg 64%
    05:00 +7°C° 0 mm 3 m/s 724 mmHg 67%
    06:00 +7°C° 0 mm 2 m/s 724 mmHg 68%
    07:00 +7°C° 0 mm 2 m/s 725 mmHg 68%
    08:00 +8°C° 0 mm 1 m/s 726 mmHg 69%
    09:00 +9°C° 0 mm 2 m/s 726 mmHg 63%
    10:00 +12°C° 0 mm 2 m/s 726 mmHg 56%
    11:00 +13°C° 0 mm 3 m/s 727 mmHg 50%
    12:00 +13°C° 0 mm 3 m/s 726 mmHg 50%
    13:00 +13°C° 0 mm 3 m/s 726 mmHg 50%
    14:00 +14°C° 0 mm 3 m/s 726 mmHg 49%
    15:00 +14°C° 0 mm 2 m/s 726 mmHg 52%
    16:00 +14°C° 0 mm 1 m/s 726 mmHg 55%
    17:00 +13°C° 0 mm 1 m/s 726 mmHg 57%
    18:00 +13°C° 0 mm 1 m/s 727 mmHg 59%
    19:00 +13°C° 0 mm 1 m/s 728 mmHg 61%
    20:00 +12°C° 0 mm 1 m/s 728 mmHg 63%
    21:00 +12°C° 0.1 mm 1 m/s 729 mmHg 65%
    22:00 +12°C° 0.1 mm 1 m/s 729 mmHg 66%
    23:00 +12°C° 0.1 mm 1 m/s 730 mmHg 67%

    Depois de amanhã, 4 Junho, Quinta-feira

    Tempo Temperatura Precipitação Vento Pressão Humidade
    00:00 +11°C° 0.1 mm 1 m/s 730 mmHg 69%
    01:00 +11°C° 0.1 mm 1 m/s 729 mmHg 70%
    02:00 +11°C° 0.1 mm 1 m/s 729 mmHg 72%
    03:00 +11°C° 0 mm 1 m/s 729 mmHg 72%
    04:00 +11°C° 0 mm 1 m/s 729 mmHg 72%
    05:00 +11°C° 0 mm 1 m/s 729 mmHg 71%
    06:00 +11°C° 0.1 mm 1 m/s 729 mmHg 71%
    07:00 +11°C° 0.1 mm 1 m/s 729 mmHg 70%
    08:00 +11°C° 0.1 mm 1 m/s 729 mmHg 69%
    09:00 +12°C° 0.1 mm 1 m/s 729 mmHg 67%
    10:00 +12°C° 0.1 mm 1 m/s 729 mmHg 64%
    11:00 +13°C° 0.1 mm 2 m/s 729 mmHg 62%
    12:00 +13°C° 0.1 mm 2 m/s 729 mmHg 61%
    13:00 +13°C° 0.1 mm 2 m/s 728 mmHg 61%
    14:00 +13°C° 0.1 mm 2 m/s 727 mmHg 61%
    15:00 +13°C° 0.3 mm 1 m/s 727 mmHg 64%
    16:00 +13°C° 0.3 mm 1 m/s 727 mmHg 66%
    17:00 +12°C° 0.3 mm 1 m/s 727 mmHg 68%
    18:00 +12°C° 0.1 mm 1 m/s 727 mmHg 70%
    19:00 +12°C° 0.1 mm 1 m/s 727 mmHg 71%
    20:00 +10°C° 0.1 mm 2 m/s 727 mmHg 73%
    21:00 +11°C° 0.4 mm 1 m/s 727 mmHg 74%
    22:00 +11°C° 0.4 mm 1 m/s 727 mmHg 75%
    23:00 +11°C° 0.4 mm 1 m/s 728 mmHg 76%

    5 Junho, Sexta-feira

    Tempo Temperatura Precipitação Vento Pressão Humidade
    00:00 +11°C° 2.1 mm 1 m/s 727 mmHg 80%
    01:00 +9°C° 2.1 mm 2 m/s 727 mmHg 84%
    02:00 +9°C° 2.1 mm 2 m/s 727 mmHg 88%
    03:00 +9°C° 0.4 mm 2 m/s 727 mmHg 87%
    04:00 +9°C° 0.4 mm 2 m/s 727 mmHg 87%
    05:00 +9°C° 0.4 mm 2 m/s 726 mmHg 86%
    06:00 +10°C° 0.2 mm 2 m/s 726 mmHg 84%
    07:00 +11°C° 0.2 mm 1 m/s 726 mmHg 82%
    08:00 +11°C° 0.2 mm 1 m/s 726 mmHg 80%
    09:00 +12°C° 0 mm 2 m/s 726 mmHg 72%
    10:00 +13°C° 0 mm 3 m/s 726 mmHg 64%
    11:00 +14°C° 0 mm 3 m/s 726 mmHg 56%
    12:00 +16°C° 0 mm 3 m/s 726 mmHg 51%
    13:00 +17°C° 0 mm 3 m/s 725 mmHg 46%
    14:00 +18°C° 0 mm 3 m/s 725 mmHg 42%
    15:00 +17°C° 0 mm 3 m/s 724 mmHg 44%
    16:00 +16°C° 0 mm 2 m/s 724 mmHg 46%
    17:00 +16°C° 0 mm 2 m/s 724 mmHg 48%
    18:00 +15°C° 0 mm 2 m/s 724 mmHg 52%
    19:00 +13°C° 0 mm 2 m/s 724 mmHg 55%
    20:00 +12°C° 0 mm 2 m/s 725 mmHg 59%
    21:00 +12°C° 0 mm 1 m/s 725 mmHg 60%
    22:00 +12°C° 0 mm 1 m/s 725 mmHg 61%
    23:00 +11°C° 0 mm 1 m/s 725 mmHg 62%

    6 Junho, Sábado

    Tempo Temperatura Precipitação Vento Pressão Humidade
    00:00 +11°C° 0 mm 1 m/s 724 mmHg 63%
    01:00 +11°C° 0 mm 1 m/s 724 mmHg 64%
    02:00 +10°C° 0 mm 1 m/s 724 mmHg 65%
    03:00 +10°C° 0 mm 1 m/s 724 mmHg 65%
    04:00 +10°C° 0 mm 1 m/s 724 mmHg 66%
    05:00 +10°C° 0 mm 1 m/s 723 mmHg 66%
    06:00 +10°C° 0 mm 1 m/s 724 mmHg 65%
    07:00 +10°C° 0 mm 0 m/s 724 mmHg 64%
    08:00 +10°C° 0 mm 0 m/s 724 mmHg 63%
    09:00 +13°C° 0 mm 1 m/s 724 mmHg 58%
    10:00 +15°C° 0 mm 1 m/s 724 mmHg 52%
    11:00 +17°C° 0 mm 2 m/s 724 mmHg 46%
    12:00 +19°C° 0 mm 2 m/s 724 mmHg 43%
    13:00 +20°C° 0 mm 3 m/s 723 mmHg 41%
    14:00 +21°C° 0 mm 3 m/s 722 mmHg 38%
    15:00 +20°C° 0 mm 3 m/s 722 mmHg 42%
    16:00 +19°C° 0 mm 2 m/s 722 mmHg 46%
    17:00 +17°C° 0 mm 2 m/s 722 mmHg 50%
    18:00 +16°C° 0 mm 2 m/s 722 mmHg 54%
    19:00 +15°C° 0 mm 1 m/s 723 mmHg 57%
    20:00 +13°C° 0 mm 1 m/s 723 mmHg 61%
    21:00 +13°C° 0 mm 1 m/s 723 mmHg 62%
    22:00 +11°C° 0 mm 0 m/s 724 mmHg 63%
    23:00 +11°C° 0 mm 0 m/s 724 mmHg 64%

    7 Junho, Domingo

    Tempo Temperatura Precipitação Vento Pressão Humidade
    00:00 +11°C° 0 mm 0 m/s 724 mmHg 65%
    01:00 +10°C° 0 mm 0 m/s 725 mmHg 66%
    02:00 +10°C° 0 mm 0 m/s 725 mmHg 67%
    03:00 +10°C° 0 mm 0 m/s 725 mmHg 69%
    04:00 +10°C° 0 mm 1 m/s 725 mmHg 70%
    05:00 +10°C° 0 mm 1 m/s 726 mmHg 71%
    06:00 +10°C° 0 mm 1 m/s 726 mmHg 71%
    07:00 +11°C° 0 mm 1 m/s 727 mmHg 71%
    08:00 +11°C° 0 mm 1 m/s 728 mmHg 70%
    09:00 +13°C° 0 mm 1 m/s 728 mmHg 63%
    10:00 +15°C° 0 mm 1 m/s 728 mmHg 56%
    11:00 +18°C° 0 mm 1 m/s 728 mmHg 49%
    12:00 +19°C° 0 mm 1 m/s 728 mmHg 47%
    13:00 +19°C° 0 mm 2 m/s 727 mmHg 45%
    14:00 +20°C° 0 mm 3 m/s 726 mmHg 43%
    15:00 +19°C° 0 mm 3 m/s 726 mmHg 48%
    16:00 +18°C° 0 mm 3 m/s 726 mmHg 52%
    17:00 +17°C° 0 mm 3 m/s 726 mmHg 56%
    18:00 +16°C° 0 mm 3 m/s 726 mmHg 61%
    19:00 +14°C° 0 mm 3 m/s 726 mmHg 65%
    20:00 +14°C° 0 mm 2 m/s 726 mmHg 70%
    21:00 +14°C° 0 mm 2 m/s 726 mmHg 71%
    22:00 +14°C° 0 mm 2 m/s 726 mmHg 72%
    23:00 +13°C° 0 mm 2 m/s 726 mmHg 73%
    Mostrar mais